Location: Harwich
(41.7160°N, 69.9939°W)
Time: 10:38:46
(UTC+01:00)

Tiros 1 - Visible Passes

Search period start: 28 January 2023 00:00
Search period end: 07 February 2023 00:00
Orbit: 628 x 662 km, 48.4° (Epoch: 28 January)

Date Brightness Start Highest point End Pass type
(mag) Time Alt. Az. Time Alt. Az. Time Alt. Az.
28 Jan 8.0 10:48:34 37° N 10:48:34 37° N 10:52:58 10° ENE visible
28 Jan 7.8 12:26:51 10° WNW 12:31:25 47° NNE 12:36:00 10° E visible
29 Jan 9.9 09:35:13 15° NE 09:35:13 15° NE 09:36:02 10° ENE visible
29 Jan 8.1 11:12:50 29° NW 11:14:20 37° N 11:18:44 10° ENE visible
30 Jan 9.2 09:59:29 23° NE 09:59:29 23° NE 10:01:37 10° ENE visible
30 Jan 7.9 11:37:06 20° NW 11:40:04 45° NNE 11:44:38 10° E visible
31 Jan 8.4 10:23:45 34° NNE 10:23:45 34° NNE 10:27:22 10° ENE visible
31 Jan 7.4 12:01:22 12° WNW 12:05:41 66° NNE 12:10:24 10° ESE visible
01 Feb 7.8 10:48:02 40° N 10:48:43 43° NNE 10:53:14 10° E visible
02 Feb 9.8 09:34:44 17° ENE 09:34:44 17° ENE 09:35:58 10° ENE visible
02 Feb 7.4 11:12:21 33° NW 11:14:21 62° NNE 11:19:03 10° ESE visible
03 Feb 8.9 09:59:05 30° ENE 09:59:05 30° ENE 10:01:51 10° E visible
03 Feb 7.1 11:36:43 21° WNW 11:39:49 78° SSW 11:44:32 10° SE visible
04 Feb 7.7 10:23:29 55° NE 10:23:29 55° NE 10:27:39 10° E visible
04 Feb 7.9 12:01:07 12° WNW 12:05:04 39° SW 12:09:29 10° SSE visible
05 Feb 10.3 09:10:19 11° E 09:10:19 11° E 09:10:26 10° E visible
05 Feb 7.0 10:47:57 70° WNW 10:48:28 84° SSW 10:53:12 10° ESE visible
06 Feb 9.6 09:34:51 19° E 09:34:51 19° E 09:36:15 10° E visible
06 Feb 7.6 11:12:30 35° WSW 11:13:46 43° SW 11:18:13 10° SSE visible
